User: anonymous   Login
Location: Unspecified
(0.0000°N, 0.0000°E)
Time: 22:53:08
(UTC+00:00)
Language:

Okean 1-7 - Orbit

View from above orbital plane
View from above orbital plane
View from above satellite
View from above satellite

Ground track
Ground track

The orbit data is extracted from the following two-line orbital elements,

1 23317U 94066A   17113.91148825 +.00000473 +00000-0 +49533-4 0  9994
2 23317 082.5382 169.3545 0018377 242.7235 117.2111 14.87384093217887
Epoch (UTC): 23 April 2017 21:52:32
Eccentricity: 0.0018377
inclination: 82.5382°
perigee height: 593 km
apogee height: 619 km
right ascension of ascending node: 169.3545°
argument of perigee: 242.7235°
revolutions per day: 14.87384093
mean anomaly at epoch: 117.2111°
orbit number at epoch: 21788

The dashed part of the orbit path shows where the satellite is in the earth's shadow,  

DLR